Location: Azul
(36.7830°S, 59.8500°W)
Time: 02:08:03
(UTC-03:00)

CAS-4A - Pass Details

Date: 27 October 2021
Orbit: 529 x 539 km, 43.0° (Epoch: 04 December)

Event Time Altitude Azimuth Distance (km) Brightness Sun altitude
Exits shadow 02:56:03 23° 133° (SE) 1,165 ? -31.3°
Drops below altitude 10° 02:57:50 10° 121° (ESE) 1,795 ? -31.1°
Sets 03:00:09 0° 114° (ESE) 2,687 ? -30.8°
